Hourly Weather Nachyn

Today, 14 July, Tuesday

Time Temperature Precipitation Wind Pressure Humidity
00:00 +16°C° 0 mm 1 mps 757 mmHg 96%
01:00 +16°C° 0 mm 1 mps 757 mmHg 96%
02:00 +16°C° 0 mm 1 mps 756 mmHg 95%
03:00 +16°C° 0 mm 1 mps 756 mmHg 94%
04:00 +16°C° 0 mm 2 mps 756 mmHg 93%
05:00 +16°C° 0 mm 2 mps 756 mmHg 92%
06:00 +16°C° 0 mm 2 mps 756 mmHg 91%
07:00 +20°C° 0 mm 1 mps 756 mmHg 83%
08:00 +22°C° 0 mm 1 mps 756 mmHg 74%
09:00 +24°C° 0 mm 1 mps 756 mmHg 66%
10:00 +25°C° 0 mm 1 mps 755 mmHg 65%
11:00 +25°C° 0 mm 2 mps 755 mmHg 63%
12:00 +26°C° 0 mm 2 mps 755 mmHg 62%
13:00 +26°C° 0 mm 2 mps 754 mmHg 63%
14:00 +25°C° 0 mm 2 mps 754 mmHg 65%
15:00 +25°C° 0 mm 2 mps 754 mmHg 66%
16:00 +25°C° 0 mm 1 mps 754 mmHg 68%
17:00 +24°C° 0 mm 1 mps 754 mmHg 70%
18:00 +24°C° 0 mm 1 mps 754 mmHg 72%
19:00 +22°C° 0 mm 1 mps 754 mmHg 79%
20:00 +21°C° 0 mm 1 mps 754 mmHg 86%
21:00 +19°C° 0 mm 1 mps 754 mmHg 93%
22:00 +19°C° 0 mm 1 mps 754 mmHg 93%
23:00 +19°C° 0 mm 1 mps 755 mmHg 93%

Tomorrow, 15 July, Wednesday

Time Temperature Precipitation Wind Pressure Humidity
00:00 +19°C° 0 mm 1 mps 755 mmHg 93%
01:00 +18°C° 0 mm 1 mps 755 mmHg 94%
02:00 +16°C° 0 mm 0 mps 754 mmHg 94%
03:00 +16°C° 0 mm 0 mps 754 mmHg 95%
04:00 +16°C° 0 mm 0 mps 754 mmHg 95%
05:00 +16°C° 0 mm 0 mps 755 mmHg 95%
06:00 +17°C° 0 mm 0 mps 755 mmHg 95%
07:00 +20°C° 0 mm 1 mps 755 mmHg 87%
08:00 +22°C° 0 mm 1 mps 755 mmHg 79%
09:00 +24°C° 0 mm 1 mps 755 mmHg 71%
10:00 +25°C° 0 mm 2 mps 755 mmHg 69%
11:00 +25°C° 0 mm 2 mps 755 mmHg 68%
12:00 +25°C° 0 mm 3 mps 754 mmHg 67%
13:00 +25°C° 0 mm 3 mps 754 mmHg 68%
14:00 +25°C° 0 mm 3 mps 754 mmHg 69%
15:00 +25°C° 0 mm 3 mps 753 mmHg 70%
16:00 +24°C° 0 mm 3 mps 753 mmHg 74%
17:00 +22°C° 0 mm 3 mps 754 mmHg 78%
18:00 +21°C° 0 mm 3 mps 754 mmHg 82%
19:00 +20°C° 0 mm 3 mps 754 mmHg 87%
20:00 +19°C° 0 mm 2 mps 754 mmHg 91%
21:00 +18°C° 0 mm 2 mps 754 mmHg 96%
22:00 +18°C° 0 mm 2 mps 754 mmHg 96%
23:00 +19°C° 0 mm 1 mps 755 mmHg 96%

Day after tomorrow, 16 July, Thursday

Time Temperature Precipitation Wind Pressure Humidity
00:00 +18°C° 0 mm 1 mps 755 mmHg 96%
01:00 +18°C° 0 mm 1 mps 755 mmHg 96%
02:00 +18°C° 0 mm 1 mps 755 mmHg 96%
03:00 +18°C° 0 mm 1 mps 754 mmHg 96%
04:00 +19°C° 0 mm 1 mps 755 mmHg 96%
05:00 +19°C° 0 mm 1 mps 755 mmHg 95%
06:00 +19°C° 0 mm 1 mps 755 mmHg 95%
07:00 +21°C° 0 mm 1 mps 755 mmHg 89%
08:00 +23°C° 0 mm 1 mps 755 mmHg 82%
09:00 +24°C° 0 mm 2 mps 755 mmHg 76%
10:00 +25°C° 0 mm 2 mps 755 mmHg 74%
11:00 +26°C° 0 mm 3 mps 755 mmHg 72%
12:00 +26°C° 0 mm 3 mps 755 mmHg 70%
13:00 +26°C° 0 mm 3 mps 755 mmHg 71%
14:00 +26°C° 0 mm 4 mps 754 mmHg 72%
15:00 +26°C° 0 mm 4 mps 754 mmHg 73%
16:00 +25°C° 0 mm 4 mps 754 mmHg 77%
17:00 +24°C° 0 mm 3 mps 754 mmHg 80%
18:00 +22°C° 0 mm 3 mps 754 mmHg 84%
19:00 +21°C° 0 mm 3 mps 755 mmHg 88%
20:00 +20°C° 0 mm 2 mps 756 mmHg 92%
21:00 +19°C° 0 mm 1 mps 756 mmHg 97%
22:00 +19°C° 0 mm 1 mps 756 mmHg 97%
23:00 +19°C° 0 mm 1 mps 756 mmHg 97%

17 July, Friday

Time Temperature Precipitation Wind Pressure Humidity
00:00 +19°C° 0 mm 1 mps 756 mmHg 97%
01:00 +19°C° 0 mm 1 mps 756 mmHg 97%
02:00 +18°C° 0 mm 2 mps 756 mmHg 96%
03:00 +18°C° 0 mm 2 mps 757 mmHg 96%
04:00 +19°C° 0 mm 2 mps 757 mmHg 96%
05:00 +19°C° 0 mm 2 mps 757 mmHg 95%
06:00 +19°C° 0 mm 2 mps 757 mmHg 95%
07:00 +22°C° 0 mm 1 mps 757 mmHg 89%
08:00 +23°C° 0 mm 1 mps 757 mmHg 84%
09:00 +25°C° 0 mm 1 mps 757 mmHg 79%
10:00 +26°C° 0 mm 1 mps 757 mmHg 75%
11:00 +27°C° 0 mm 2 mps 757 mmHg 70%
12:00 +28°C° 0 mm 2 mps 757 mmHg 66%
13:00 +28°C° 0 mm 3 mps 757 mmHg 68%
14:00 +27°C° 0 mm 3 mps 756 mmHg 69%
15:00 +26°C° 0 mm 4 mps 756 mmHg 71%
16:00 +26°C° 0 mm 4 mps 756 mmHg 74%
17:00 +25°C° 0 mm 3 mps 757 mmHg 77%
18:00 +24°C° 0 mm 3 mps 757 mmHg 81%
19:00 +21°C° 0 mm 2 mps 757 mmHg 86%
20:00 +21°C° 0 mm 1 mps 758 mmHg 91%
21:00 +19°C° 0 mm 1 mps 758 mmHg 96%
22:00 +19°C° 0 mm 1 mps 758 mmHg 96%
23:00 +19°C° 0 mm 1 mps 758 mmHg 96%

18 July, Saturday

Time Temperature Precipitation Wind Pressure Humidity
00:00 +19°C° 0 mm 1 mps 758 mmHg 96%
01:00 +19°C° 0 mm 1 mps 758 mmHg 96%
02:00 +18°C° 0 mm 1 mps 758 mmHg 96%
03:00 +18°C° 0 mm 1 mps 758 mmHg 96%
04:00 +19°C° 0 mm 1 mps 758 mmHg 96%
05:00 +19°C° 0 mm 1 mps 758 mmHg 95%
06:00 +18°C° 0 mm 2 mps 758 mmHg 95%
07:00 +20°C° 0 mm 2 mps 758 mmHg 88%
08:00 +23°C° 0 mm 2 mps 758 mmHg 82%
09:00 +25°C° 0 mm 2 mps 758 mmHg 75%
10:00 +25°C° 0 mm 2 mps 758 mmHg 71%
11:00 +26°C° 0 mm 2 mps 758 mmHg 67%
12:00 +27°C° 0 mm 3 mps 757 mmHg 63%
13:00 +27°C° 0 mm 3 mps 757 mmHg 64%
14:00 +27°C° 0 mm 3 mps 757 mmHg 64%
15:00 +27°C° 0 mm 3 mps 756 mmHg 64%
16:00 +26°C° 0 mm 2 mps 756 mmHg 68%
17:00 +25°C° 0 mm 2 mps 756 mmHg 73%
18:00 +24°C° 0 mm 2 mps 756 mmHg 77%
19:00 +21°C° 0 mm 2 mps 756 mmHg 83%
20:00 +21°C° 0 mm 1 mps 757 mmHg 90%
21:00 +19°C° 0 mm 1 mps 757 mmHg 96%
22:00 +19°C° 0 mm 1 mps 757 mmHg 96%
23:00 +18°C° 0 mm 1 mps 757 mmHg 95%

19 July, Sunday

Time Temperature Precipitation Wind Pressure Humidity
00:00 +18°C° 0 mm 1 mps 757 mmHg 95%
01:00 +18°C° 0 mm 1 mps 757 mmHg 95%
02:00 +18°C° 0 mm 1 mps 757 mmHg 94%
03:00 +16°C° 0 mm 1 mps 757 mmHg 94%
04:00 +18°C° 0 mm 1 mps 757 mmHg 93%
05:00 +18°C° 0 mm 1 mps 757 mmHg 92%
06:00 +18°C° 0 mm 1 mps 757 mmHg 92%
07:00 +20°C° 0 mm 1 mps 757 mmHg 84%
08:00 +22°C° 0 mm 1 mps 757 mmHg 76%
09:00 +24°C° 0 mm 2 mps 757 mmHg 68%
10:00 +25°C° 0 mm 2 mps 757 mmHg 66%
11:00 +25°C° 0 mm 2 mps 756 mmHg 64%
12:00 +26°C° 0 mm 2 mps 756 mmHg 61%
13:00 +26°C° 0 mm 2 mps 756 mmHg 62%
14:00 +26°C° 0 mm 3 mps 756 mmHg 64%
15:00 +25°C° 0 mm 3 mps 755 mmHg 65%
16:00 +25°C° 0 mm 3 mps 755 mmHg 69%
17:00 +24°C° 0 mm 2 mps 755 mmHg 74%
18:00 +23°C° 0 mm 2 mps 755 mmHg 79%
19:00 +21°C° 0 mm 2 mps 756 mmHg 85%
20:00 +21°C° 0 mm 1 mps 756 mmHg 90%
21:00 +19°C° 0 mm 1 mps 756 mmHg 96%
22:00 +19°C° 0 mm 1 mps 756 mmHg 96%
23:00 +19°C° 0 mm 1 mps 756 mmHg 97%
Show more